STARLINK-11568, 63307

Orbit data source: Space-Track

STARLINK-11568, 63307 is a payload satellite owned by SpaceX/Seattle (US) in LEO that was launched on Tue, 18 Mar 2025 UTC via an FALCON 9 launch vehicle from the Air Force Eastern Test Range (AFETR). Payload-class satellites include a variety of spacecraft equipped with specific instruments for various scientific and technological missions. These include communications satellites like Starlink; space stations such as the ISS; scientific satellites like the Hubble; Earth observation satellites from companies like Planet Labs, Umbra, and HawkEye 360; GPS; miniature CubeSats for education and research; and military/defense satellites.

Loading next visibility...
Identifier
63307, 2025-057A
Orbit
LEO
Country
Flag of USUS
Related business
Manufacturer
SpaceX/Seattle
Mission
Operational Commercial Communications
Bus & Motor
STARLINK V2MD, Unknown motor
Mass
960 kg wet, ~910 kg dry
Launch date (UTC)
2025-03-18 (6 months ago)
Launch vehicle
FALCON 9
Launch site
Air Force Eastern Test Range (AFETR)
Object type
Payload
Rocket body
Debris
Shape & HBR
Box + 2 Pan, 14.5 m
Radar Cross Section
36.964 m², Large (>1 m²)

Expand to show TLE details & history
Last TLE update: 1 day ago

TLE from 1 day ago
0 STARLINK-11568
1 63307U 25057A   25261.26721891  .00241200  00000-0  18240-2 0  9996
2 63307  42.9989 223.5144 0000964 323.1535  36.9266 15.70907075 30066
Epoch: 2025-09-18T06:24Z
TLE epoch observation values (Epoch: 2025-09-18T06:24:47.713Z)
Latitude
-0.00005°
Longitude
129.88427°
Altitude
355.556 km
Speed
7.698 km/s
True Right ascension
14h 54m 03s
True Declination
0° 00' 00"
Sunlit
Object was in daylight at epoch
Visualization orbit readout
Latitude
Unknown
Longitude
Unknown
Altitude
Unknown
Speed
Unknown
Apparent Right ascension
Unknown
Apparent Declination
Unknown
Sunlit
N/A
Visualization observer readout
Local Sidereal Time
00:42:40
Azimuth
Unknown
Elevation
Unknown
Doppler factor
Unknown
Orbital elements
Apogee altitude
358.935 km
Perigee altitude
357.636 km
Semi-major axis
6,736.422 km
Eccentricity
0.0001
Inclination
42.9989°
RAAN
223.5144°
Arg. of periapsis
323.1535°
True anomaly
36.93324°
Mean anomaly
36.9266°
Eccentric anomaly
36.92992°
Mean motion
3.92554 °/min
Orbital period
91.71 mins
BSTAR
0.001824
Loading maneuver chart data...
Computing Atmospheric mass density...
Loading historical data...
Loading historical data...
Loading historical data...
Loading historical data...
Loading historical data...
Loading historical data...
Loading historical data...

Documentation

Showing up to 5 results
|